Medicine Lodge, KS

10:55 AM CDT on May 25, 2018 (GMT -0500)
Medicine Lodge

Weather History for KP28 - March, 2013

Change the Weather History Date:

Wednesday, March 20, 2013

  Actual Average Record
Temperature  
Mean Temperature 38 °F 48 °F  
Max Temperature 50 °F 61 °F 90 °F (1934)
Min Temperature 26 °F 35 °F 6 °F (1965)
Degree Days  
Heating Degree Days 27 17  
Month to date heating degree days 453 399  
Since 1 July heating degree days 3739 3928  
Cooling Degree Days 0 0  
Month to date cooling degree days 0 0  
Year to date cooling degree days 0 0  
Moisture  
Dew Point 23 °F    
Average Humidity 62    
Maximum Humidity 92    
Minimum Humidity 31    
Precipitation  
Precipitation 0.00 in 0.07 in 1.25 in (1909)
Month to date precipitation 2.19 1.46  
Year to date precipitation 5.74 3.21  
Snow  
Snow 0.00 in 0.00 in - ()
Month to date snowfall 0.0 0.1  
Since 1 July snowfall 24.5 8.5  
Snow Depth -    
Sea Level Pressure  
Sea Level Pressure 30.26 in    
Wind  
Wind Speed 8 mph (East)    
Max Wind Speed 21 mph    
Max Gust Speed 26 mph    
T = Trace of Precipitation, MM = Missing Value Source: NWS Daily Summary

Daily Weather History Graph

Daily Weather History Graph

Search for Another Location

Airport or City:

Astronomy

Mar. 20, 2013 Rise Set
Actual Time 7:37 AM CDT 7:46 PM CDT
Civil Twilight 7:11 AM CDT 8:12 PM CDT
Nautical Twilight 6:41 AM CDT 8:42 PM CDT
Astronomical Twilight 6:10 AM CDT 9:13 PM CDT
Moon 1:29 PM CDT (3/20) 3:11 AM CDT (3/20)
Length of Visible Light 13h 01m
Length of Day
12h 09m
First Quarter, 59% of the Moon is Illuminated
Mar 20
First Quarter
Mar 27
Full
Apr 2
Last Quarter
Apr 10
New
Apr 18
First Quarter

Hourly Weather History & Observations

Time (CDT) Temp. Windchill Dew Point Humidity Pressure Visibility Wind Dir Wind Speed Gust Speed Precip Events Conditions
12:56 AM 35.1 °F - 27.0 °F 72% 30.31 in - Calm Calm - N/A   Unknown
1:56 AM 33.1 °F - 26.1 °F 75% 30.32 in - Calm Calm - N/A   Unknown
2:56 AM 30.0 °F - 27.0 °F 88% 30.34 in - Calm Calm - N/A   Unknown
3:56 AM 28.0 °F - 25.0 °F 88% 30.33 in - Calm Calm - N/A   Unknown
4:56 AM 28.0 °F 20.8 °F 26.1 °F 92% 30.35 in - North 6.9 mph - N/A   Unknown
5:56 AM 28.0 °F 20.8 °F 26.1 °F 92% 30.35 in - North 6.9 mph - N/A   Unknown
6:56 AM 28.0 °F 19.3 °F 26.1 °F 92% 30.39 in - North 9.2 mph - N/A   Unknown
7:56 AM 30.9 °F 19.1 °F 26.1 °F 82% 30.40 in - NE 18.4 mph 25.3 mph N/A   Unknown
8:56 AM 34.0 °F 24.6 °F 21.9 °F 61% 30.42 in - ENE 13.8 mph - N/A   Unknown
9:56 AM 36.0 °F 27.1 °F 19.0 °F 50% 30.42 in - ENE 13.8 mph - N/A   Unknown
10:56 AM 39.9 °F 33.9 °F 17.1 °F 40% 30.42 in - ENE 9.2 mph - N/A   Unknown
11:56 AM 42.1 °F 37.7 °F 17.1 °F 37% 30.41 in - East 6.9 mph - N/A   Unknown
12:56 PM 45.0 °F 40.6 °F 16.0 °F 31% 30.38 in - ENE 8.1 mph - N/A   Unknown
1:56 PM 45.0 °F 41.8 °F 16.0 °F 31% 30.34 in - SE 5.8 mph - N/A   Unknown
2:56 PM 48.0 °F - 19.0 °F 32% 30.27 in - Variable 4.6 mph - N/A   Unknown
3:56 PM 48.0 °F - 19.0 °F 32% 30.22 in - Variable 5.8 mph - N/A   Unknown
4:56 PM 48.9 °F - 19.9 °F 32% 30.18 in - South 8.1 mph - N/A   Unknown
5:56 PM 48.9 °F - 21.9 °F 35% 30.14 in - South 8.1 mph - N/A   Unknown
6:56 PM 48.0 °F - 23.0 °F 37% 30.12 in - SE 8.1 mph - N/A   Unknown
7:56 PM 46.0 °F 41.9 °F 23.0 °F 40% 30.09 in - ESE 8.1 mph - N/A   Unknown
8:56 PM 44.1 °F 39.5 °F 24.1 °F 45% 30.05 in - ESE 8.1 mph - N/A   Unknown
9:56 PM 42.1 °F 36.6 °F 25.0 °F 51% 30.04 in - ESE 9.2 mph - N/A   Unknown
10:56 PM 39.9 °F 33.9 °F 25.0 °F 55% 30.01 in - SE 9.2 mph - N/A   Unknown
11:56 PM 39.0 °F 32.3 °F 24.1 °F 55% 29.99 in - SE 10.4 mph - N/A   Unknown